Minot, ND

5:48 PM CST on November 21, 2017 (GMT -0600)
Minot International

Weather History for KMOT - February, 2013

Change the Weather History Date:

Thursday, February 21, 2013

  Actual Average Record
Temperature  
Mean Temperature 16 °F 19 °F  
Max Temperature 21 °F 27 °F 54 °F (1961)
Min Temperature 10 °F 11 °F -34 °F (1897)
Degree Days  
Heating Degree Days 49 46  
Month to date heating degree days 1029 1030  
Since 1 July heating degree days 6430 6262  
Moisture  
Dew Point 13 °F    
Average Humidity 81    
Maximum Humidity 88    
Minimum Humidity 73    
Precipitation  
Precipitation 0.03 in 0.02 in 0.56 in (1980)
Month to date precipitation 0.43 0.28  
Year to date precipitation 0.54 0.79  
Sea Level Pressure  
Sea Level Pressure 30.16 in    
Wind  
Wind Speed 9 mph (SE)    
Max Wind Speed 15 mph    
Max Gust Speed 22 mph    
Visibility 4 miles    
Events Snow    
T = Trace of Precipitation, MM = Missing Value Source: NWS Daily Summary

Daily Weather History Graph

Daily Weather History Graph

Search for Another Location

Airport or City:

Trip Planner

Search our weather history database for the weather conditions in past years. The results will help you decide how hot, cold, wet, or windy it might be!

Date:

Astronomy

Feb. 21, 2013 Rise Set
Actual Time 7:40 AM CST 6:17 PM CST
Civil Twilight 7:09 AM CST 6:48 PM CST
Nautical Twilight 6:32 AM CST 7:25 PM CST
Astronomical Twilight 5:56 AM CST 8:01 PM CST
Moon 2:21 PM CST 4:59 AM CST
Length of Visible Light 11h 39m
Length of Day
10h 36m
Waxing Gibbous, 84% of the Moon is Illuminated
Feb 21
Waxing Gibbous
Feb 25
Full
Mar 4
Last Quarter
Mar 11
New
Mar 19
First Quarter

Hourly Weather History & Observations

Time (CST) Temp. Windchill Dew Point Humidity Pressure Visibility Wind Dir Wind Speed Gust Speed Precip Events Conditions
12:54 AM 10.0 °F -1.9 °F 5.0 °F 80% 30.24 in 10.0 mi ESE 8.1 mph - N/A   Overcast
1:54 AM 10.9 °F -0.8 °F 6.1 °F 81% 30.23 in 7.0 mi ESE 8.1 mph - 0.00 in Snow Light Snow
2:54 AM 10.9 °F 0.2 °F 7.0 °F 84% 30.24 in 6.0 mi ESE 6.9 mph - 0.00 in   Overcast
3:54 AM 10.9 °F -1.8 °F 7.0 °F 84% 30.23 in 8.0 mi ESE 9.2 mph - 0.00 in   Overcast
4:54 AM 12.0 °F -0.4 °F 8.1 °F 84% 30.23 in 5.0 mi ESE 9.2 mph - N/A   Overcast
5:54 AM 12.0 °F -0.4 °F 9.0 °F 88% 30.23 in 7.0 mi ESE 9.2 mph - 0.00 in   Overcast
6:54 AM 12.0 °F -0.4 °F 9.0 °F 88% 30.24 in 10.0 mi ESE 9.2 mph - N/A   Overcast
7:54 AM 14.0 °F 5.1 °F 10.0 °F 84% 30.22 in 10.0 mi ESE 5.8 mph - 0.00 in   Overcast
8:37 AM 15.8 °F 7.2 °F 10.4 °F 79% 30.12 in 2.5 mi ESE 5.8 mph - 0.00 in Snow Light Snow
8:54 AM 15.1 °F 6.4 °F 10.9 °F 84% 30.24 in 2.0 mi ESE 5.8 mph - 0.00 in Snow Light Snow
9:02 AM 15.8 °F 7.2 °F 10.4 °F 79% 30.13 in 1.5 mi East 5.8 mph - 0.00 in Snow Light Snow
9:42 AM 15.8 °F 2.7 °F 12.2 °F 86% 30.13 in 2.0 mi SE 11.5 mph - 0.00 in Snow Light Snow
9:50 AM 15.8 °F 4.2 °F 12.2 °F 86% 30.14 in 1.2 mi SE 9.2 mph - 0.01 in Snow Light Snow
9:54 AM 16.0 °F 4.4 °F 12.9 °F 88% 30.25 in 1.0 mi SE 9.2 mph - 0.01 in Snow Light Snow
10:03 AM 17.6 °F 5.0 °F 12.2 °F 79% 30.14 in 0.8 mi SE 11.5 mph - 0.00 in Snow Light Snow
10:12 AM 17.6 °F 5.7 °F 12.2 °F 79% 30.14 in 1.2 mi SE 10.4 mph - 0.00 in Snow Light Snow
10:54 AM 18.0 °F 6.1 °F 12.9 °F 81% 30.25 in 1.8 mi SE 10.4 mph - 0.00 in Snow Light Snow
11:12 AM 17.6 °F 5.0 °F 14.0 °F 86% 30.13 in 2.5 mi SE 11.5 mph - 0.00 in Snow Light Snow
11:22 AM 19.4 °F 6.6 °F 14.0 °F 80% 30.13 in 4.0 mi SE 12.7 mph - 0.00 in Snow Light Snow
11:30 AM 19.4 °F 7.2 °F 14.0 °F 80% 30.13 in 5.0 mi SE 11.5 mph - 0.00 in Snow Light Snow
11:54 AM 19.0 °F 6.8 °F 14.0 °F 81% 30.23 in 10.0 mi SSE 11.5 mph - 0.00 in   Overcast
12:54 PM 19.9 °F 7.9 °F 14.0 °F 78% 30.22 in 10.0 mi SSE 11.5 mph 21.9 mph 0.00 in   Overcast
1:35 PM 19.4 °F 9.5 °F 15.8 °F 86% 30.11 in 1.8 mi SSE 8.1 mph - 0.00 in Snow Light Snow
1:44 PM 19.4 °F 8.6 °F 15.8 °F 86% 30.11 in 1.0 mi SSE 9.2 mph - 0.01 in Snow Light Snow
1:54 PM 19.9 °F 11.1 °F 15.1 °F 81% 30.21 in 1.0 mi SSE 6.9 mph - 0.01 in Snow Light Snow
2:10 PM 21.2 °F 10.9 °F 15.8 °F 80% 30.10 in 3.0 mi SSE 9.2 mph - 0.00 in Snow Light Snow
2:17 PM 21.2 °F 8.9 °F 15.8 °F 80% 30.10 in 2.0 mi SSE 12.7 mph - 0.00 in Snow Light Snow
2:39 PM 21.2 °F 9.5 °F 15.8 °F 80% 30.10 in 2.0 mi SSE 11.5 mph - 0.00 in Snow Light Snow
2:54 PM 19.9 °F 9.3 °F 16.0 °F 85% 30.20 in 2.0 mi SSE 9.2 mph - 0.00 in Snow Light Snow
3:01 PM 19.4 °F 7.9 °F 15.8 °F 86% 30.10 in 1.0 mi SE 10.4 mph - 0.00 in Snow Light Snow
3:39 PM 19.4 °F 7.2 °F 15.8 °F 86% 30.09 in 2.5 mi SSE 11.5 mph - 0.01 in Snow Light Snow
3:49 PM 19.4 °F 7.9 °F 15.8 °F 86% 30.09 in 3.0 mi SSE 10.4 mph - 0.01 in Snow Light Snow
3:54 PM 19.9 °F 10.1 °F 15.1 °F 81% 30.19 in 3.0 mi SSE 8.1 mph - 0.01 in Snow Light Snow
4:12 PM 19.4 °F 9.5 °F 15.8 °F 86% 30.09 in 2.5 mi SSE 8.1 mph - N/A Snow Light Snow
4:46 PM 19.4 °F 8.6 °F 15.8 °F 86% 30.08 in 1.5 mi SSE 9.2 mph - 0.00 in Snow Light Snow
4:54 PM 19.9 °F 11.1 °F 16.0 °F 85% 30.18 in 1.5 mi SSE 6.9 mph - 0.00 in Snow Light Snow
5:05 PM 19.4 °F 10.4 °F 15.8 °F 86% 30.08 in 2.0 mi SE 6.9 mph - 0.00 in Snow Light Snow
5:43 PM 19.4 °F 7.9 °F 14.0 °F 80% 30.08 in 4.0 mi ESE 10.4 mph - 0.00 in Snow Light Snow
5:54 PM 19.0 °F 6.8 °F 14.0 °F 81% 30.19 in 4.0 mi ESE 11.5 mph - 0.00 in Snow Light Snow
6:05 PM 19.4 °F 7.9 °F 14.0 °F 80% 30.08 in 1.8 mi ESE 10.4 mph - 0.00 in Snow Light Snow
6:26 PM 19.4 °F 7.2 °F 12.2 °F 74% 30.07 in 3.0 mi ESE 11.5 mph - 0.00 in Snow Light Snow
6:54 PM 17.1 °F 5.0 °F 10.9 °F 77% 30.18 in 10.0 mi East 10.4 mph - 0.00 in   Mostly Cloudy
7:54 PM 17.1 °F 3.6 °F 12.0 °F 81% 30.18 in 10.0 mi ESE 12.7 mph - N/A   Overcast
8:54 PM 15.8 °F 4.2 °F 10.4 °F 79% 30.07 in 10.0 mi ESE 9.2 mph - N/A   Overcast
9:54 PM 14.0 °F 2.9 °F 10.0 °F 84% 30.17 in 10.0 mi ESE 8.1 mph - N/A   Partly Cloudy
10:54 PM 14.0 °F 5.1 °F 9.0 °F 80% 30.16 in 10.0 mi SE 5.8 mph - N/A   Mostly Cloudy
11:54 PM 14.0 °F 3.9 °F 8.1 °F 77% 30.15 in 10.0 mi SE 6.9 mph - N/A   Overcast